User: anonymous   Login
Location: Unspecified
(0.0000°N, 0.0000°E)
Time: 09:32:49
(UTC+00:00)
Language:

GOMX4-B - Orbit

View from above orbital plane
View from above orbital plane
View from above satellite
View from above satellite

Ground track
Ground track

The orbit data is extracted from the following two-line orbital elements,

1 43196U 18015E   24114.01092479  .00077540  00000-0  10823-2 0  9991
2 43196  97.6058 283.6970 0009298 160.3367 199.8247 15.56575154346927
Epoch (UTC): 23 April 2024 00:15:43
Eccentricity: 0.0009298
inclination: 97.6058°
perigee height: 391 km
apogee height: 404 km
right ascension of ascending node: 283.6970°
argument of perigee: 160.3367°
revolutions per day: 15.56575154
mean anomaly at epoch: 199.8247°
orbit number at epoch: 34692

The dashed part of the orbit path shows where the satellite is in the earth's shadow,  

DLR